Simultaneous Nadir Overpasses (SNOs) Predictions

Prediction of SNOs between LANDSAT-8 and METOP-B Satellite Orbit:

Table of predicted SNOs for the next 14.0 days since TLE Epoch: 4/17/2021
Index Date (LANDSAT-8) Time (LANDSAT-8) Lat,Lon (LANDSAT-8) SZA (LANDSAT-8 ) Date (METOP-B) Time (METOP-B) Lat,Lon (METOP-B) SZA (METOP-B ) Distance(km) Time Diff (sec)
1 04/19/2021 14:43:42 81.13, -1.46 71.82 04/19/2021 14:42:46 81.13, -1.50 71.79 0.77 56
2 04/19/2021 15:33:08 -81.15, 166.50 108.15 04/19/2021 15:33:25 -81.14, 166.34 108.17 2.72 17
3 04/22/2021 10:17:56 81.12, 64.90 70.87 04/22/2021 10:17:07 81.12, 64.73 70.83 2.98 49
4 04/22/2021 11:07:22 -81.15,-127.12 109.10 04/22/2021 11:07:45 -81.15,-127.03 109.07 1.50 23
5 04/25/2021 05:52:08 81.14, 131.59 70.00 04/25/2021 05:51:25 81.14, 131.69 69.99 1.76 43
6 04/25/2021 06:41:35 -81.14, -60.76 110.02 04/25/2021 06:42:05 -81.14, -60.80 110.01 0.68 30
7 04/28/2021 01:26:22 81.13,-162.11 69.09 04/28/2021 01:25:46 81.13,-162.11 69.08 0.12 36
8 04/28/2021 02:15:48 -81.16, 5.92 110.87 04/28/2021 02:16:25 -81.15, 5.80 110.87 2.19 37
9 04/30/2021 21:00:36 81.12, -95.84 68.21 04/30/2021 21:00:07 81.12, -95.93 68.19 1.54 29



Historial Predications of SNOs between LANDSAT-8 and METOP-B
